{"data":{"norad_id":81683,"epoch":"2026-05-23T08:46:00.953184Z","epoch_age_seconds":216423,"freshness":"STALE","line1":"1 81683U          26143.36528881  .00002323  00000+0  49532-3 0  9998","line2":"2 81683  81.2134 124.7696 0024178 157.2533 202.9741 14.58488053659416","mean_motion":14.58488053,"eccentricity":0.0024178,"inclination_deg":81.2134,"raan_deg":124.7696,"arg_perigee_deg":157.2533,"mean_anomaly_deg":202.9741,"bstar":0.00049532,"rev_number":65941,"period_min":98.732382280268,"perigee_km":680.95131555203,"apogee_km":715.16897446644,"semimajor_km":7076.1971450092,"source":"CELESTRAK","updated_at":"2026-05-25T13:38:11.081711Z"}}